Time,TemperatureF,DewpointF,PressureIn,WindDirection,WindDirectionDegrees,WindSpeedMPH,WindSpeedGustMPH,Humidity,HourlyPrecipIn,Conditions,Clouds,dailyrainin,SoftwareType,DateUTC
2013-01-04 00:00:00,19.9,10.7,29.94,South,179,0.0,1.0,67,0.00,,---,0.00,VWS V14.00,2013-01-04 05:00:00,
2013-01-04 00:02:00,19.9,11.1,29.93,South,179,0.0,1.0,68,0.00,,---,0.00,VWS V14.00,2013-01-04 05:02:00,
2013-01-04 00:03:00,19.9,11.1,29.93,South,179,0.0,0.0,68,0.00,,---,0.00,VWS V14.00,2013-01-04 05:03:00,
2013-01-04 00:08:00,19.7,10.5,29.93,South,179,0.0,0.0,67,0.00,,---,0.00,VWS V14.00,2013-01-04 05:08:00,
2013-01-04 00:13:00,19.7,10.9,29.93,South,179,0.0,1.0,68,0.00,,---,0.00,VWS V14.00,2013-01-04 05:13:00,
2013-01-04 00:18:00,19.7,10.9,29.92,South,179,0.0,1.0,68,0.00,,---,0.00,VWS V14.00,2013-01-04 05:18:00,
2013-01-04 00:23:00,19.7,10.9,29.92,South,179,0.0,1.0,68,0.00,,---,0.00,VWS V14.00,2013-01-04 05:23:00,
2013-01-04 00:28:00,19.7,10.9,29.92,South,179,0.0,1.0,68,0.00,,---,0.00,VWS V14.00,2013-01-04 05:28:00,
2013-01-04 00:33:00,19.7,11.2,29.92,South,179,0.0,0.0,69,0.00,,---,0.00,VWS V14.00,2013-01-04 05:33:00,
2013-01-04 00:38:00,19.5,11.0,29.92,South,179,0.0,0.0,69,0.00,,---,0.00,VWS V14.00,2013-01-04 05:38:00,
2013-01-04 00:43:00,19.7,11.2,29.92,South,179,0.0,1.0,69,0.00,,---,0.00,VWS V14.00,2013-01-04 05:43:00,
2013-01-04 00:48:00,19.7,10.9,29.91,South,179,0.0,1.0,68,0.00,,---,0.00,VWS V14.00,2013-01-04 05:48:00,
2013-01-04 00:53:00,19.7,11.2,29.91,South,179,0.0,1.0,69,0.00,,---,0.00,VWS V14.00,2013-01-04 05:53:00,
2013-01-04 00:58:00,19.7,11.2,29.91,South,179,0.0,1.0,69,0.00,,---,0.00,VWS V14.00,2013-01-04 05:58:00,
2013-01-04 01:03:00,19.7,11.2,29.91,South,179,0.0,0.0,69,0.00,,---,0.00,VWS V14.00,2013-01-04 06:03:00,
2013-01-04 01:08:00,19.7,11.2,29.91,South,179,0.0,1.0,69,0.00,,---,0.00,VWS V14.00,2013-01-04 06:08:00,
2013-01-04 01:13:00,19.5,11.3,29.91,South,179,0.0,1.0,70,0.00,,---,0.00,VWS V14.00,2013-01-04 06:13:00,
2013-01-04 01:18:00,19.5,11.3,29.91,South,179,0.0,1.0,70,0.00,,---,0.00,VWS V14.00,2013-01-04 06:18:00,
2013-01-04 01:23:00,19.4,11.2,29.91,South,179,0.0,1.0,70,0.00,,---,0.00,VWS V14.00,2013-01-04 06:23:00,
2013-01-04 01:28:00,19.5,11.3,29.91,South,179,0.0,1.0,70,0.00,,---,0.00,VWS V14.00,2013-01-04 06:28:00,
2013-01-04 01:33:00,19.7,11.5,29.91,South,179,0.0,0.0,70,0.00,,---,0.00,VWS V14.00,2013-01-04 06:33:00,
2013-01-04 01:38:00,19.7,11.8,29.91,South,179,0.0,1.0,71,0.00,,---,0.00,VWS V14.00,2013-01-04 06:38:00,
2013-01-04 01:43:00,19.7,11.5,29.91,South,179,0.0,1.0,70,0.00,,---,0.00,VWS V14.00,2013-01-04 06:43:00,
2013-01-04 01:48:00,19.5,11.6,29.91,South,179,0.0,1.0,71,0.00,,---,0.00,VWS V14.00,2013-01-04 06:48:00,
2013-01-04 01:53:00,19.4,11.2,29.91,South,179,0.0,1.0,70,0.00,,---,0.00,VWS V14.00,2013-01-04 06:53:00,
2013-01-04 01:58:00,19.1,11.3,29.91,South,179,0.0,1.0,71,0.00,,---,0.00,VWS V14.00,2013-01-04 06:58:00,
2013-01-04 02:03:00,18.8,11.3,29.91,South,179,0.0,0.0,72,0.00,,---,0.00,VWS V14.00,2013-01-04 07:03:00,
2013-01-04 02:08:00,18.8,11.6,29.91,South,179,0.0,0.0,73,0.00,,---,0.00,VWS V14.00,2013-01-04 07:08:00,
2013-01-04 02:13:00,18.8,11.9,29.91,South,179,0.0,0.0,74,0.00,,---,0.00,VWS V14.00,2013-01-04 07:13:00,
2013-01-04 02:18:00,18.8,11.9,29.91,South,179,0.0,0.0,74,0.00,,---,0.00,VWS V14.00,2013-01-04 07:18:00,
2013-01-04 02:23:00,18.9,11.7,29.91,South,179,0.0,0.0,73,0.00,,---,0.00,VWS V14.00,2013-01-04 07:23:00,
2013-01-04 02:28:00,19.1,11.9,29.91,South,179,0.0,1.0,73,0.00,,---,0.00,VWS V14.00,2013-01-04 07:28:00,
2013-01-04 02:33:00,19.2,12.0,29.91,South,179,0.0,0.0,73,0.00,,---,0.00,VWS V14.00,2013-01-04 07:33:00,
2013-01-04 02:38:00,19.2,12.3,29.91,South,179,0.0,0.0,74,0.00,,---,0.00,VWS V14.00,2013-01-04 07:38:00,
2013-01-04 02:43:00,19.2,12.3,29.91,South,179,0.0,0.0,74,0.00,,---,0.00,VWS V14.00,2013-01-04 07:43:00,
2013-01-04 02:48:00,19.2,12.3,29.91,South,179,0.0,0.0,74,0.00,,---,0.00,VWS V14.00,2013-01-04 07:48:00,
2013-01-04 02:54:00,19.4,12.5,29.91,South,179,0.0,0.0,74,0.00,,---,0.00,VWS V14.00,2013-01-04 07:54:00,
2013-01-04 02:59:00,19.4,12.8,29.91,South,179,0.0,0.0,75,0.00,,---,0.00,VWS V14.00,2013-01-04 07:59:00,
2013-01-04 03:04:00,19.5,12.6,29.90,South,179,0.0,0.0,74,0.00,,---,0.00,VWS V14.00,2013-01-04 08:04:00,
2013-01-04 03:09:00,19.7,12.8,29.90,South,179,0.0,0.0,74,0.00,,---,0.00,VWS V14.00,2013-01-04 08:09:00,
2013-01-04 03:14:00,19.7,12.8,29.90,South,179,0.0,0.0,74,0.00,,---,0.00,VWS V14.00,2013-01-04 08:14:00,
2013-01-04 03:19:00,19.5,12.6,29.89,South,179,0.0,0.0,74,0.00,,---,0.00,VWS V14.00,2013-01-04 08:19:00,
2013-01-04 03:24:00,19.5,12.9,29.89,South,179,0.0,0.0,75,0.00,,---,0.00,VWS V14.00,2013-01-04 08:24:00,
2013-01-04 03:29:00,19.5,12.9,29.89,South,179,0.0,0.0,75,0.00,,---,0.00,VWS V14.00,2013-01-04 08:29:00,
2013-01-04 03:34:00,19.4,12.8,29.89,South,179,0.0,0.0,75,0.00,,---,0.00,VWS V14.00,2013-01-04 08:34:00,
2013-01-04 03:39:00,19.2,12.6,29.89,South,179,0.0,0.0,75,0.00,,---,0.00,VWS V14.00,2013-01-04 08:39:00,
2013-01-04 03:44:00,19.1,13.1,29.89,South,179,0.0,0.0,77,0.00,,---,0.00,VWS V14.00,2013-01-04 08:44:00,
2013-01-04 03:49:00,19.1,13.1,29.89,South,179,0.0,1.0,77,0.00,,---,0.00,VWS V14.00,2013-01-04 08:49:00,
2013-01-04 03:54:00,19.2,12.9,29.89,South,179,0.0,1.0,76,0.00,,---,0.00,VWS V14.00,2013-01-04 08:54:00,
2013-01-04 03:59:00,19.4,13.1,29.89,South,179,0.0,1.0,76,0.00,,---,0.00,VWS V14.00,2013-01-04 08:59:00,
2013-01-04 04:04:00,19.4,13.4,29.89,South,179,0.0,0.0,77,0.00,,---,0.00,VWS V14.00,2013-01-04 09:04:00,
2013-01-04 04:09:00,19.2,13.2,29.89,South,179,0.0,0.0,77,0.00,,---,0.00,VWS V14.00,2013-01-04 09:09:00,
2013-01-04 04:14:00,19.4,13.4,29.89,South,179,0.0,0.0,77,0.00,,---,0.00,VWS V14.00,2013-01-04 09:14:00,
2013-01-04 04:19:00,19.4,13.4,29.89,South,179,0.0,0.0,77,0.00,,---,0.00,VWS V14.00,2013-01-04 09:19:00,
2013-01-04 04:24:00,19.2,13.2,29.89,South,179,0.0,0.0,77,0.00,,---,0.00,VWS V14.00,2013-01-04 09:24:00,
2013-01-04 04:29:00,19.2,13.2,29.89,South,179,0.0,0.0,77,0.00,,---,0.00,VWS V14.00,2013-01-04 09:29:00,
2013-01-04 04:34:00,19.5,13.8,29.89,South,179,0.0,0.0,78,0.00,,---,0.00,VWS V14.00,2013-01-04 09:34:00,
2013-01-04 04:39:00,19.7,14.0,29.89,South,179,0.0,0.0,78,0.00,,---,0.00,VWS V14.00,2013-01-04 09:39:00,
2013-01-04 04:44:00,19.9,14.2,29.89,South,179,0.0,0.0,78,0.00,,---,0.00,VWS V14.00,2013-01-04 09:44:00,
2013-01-04 04:49:00,19.9,14.2,29.89,South,179,0.0,0.0,78,0.00,,---,0.00,VWS V14.00,2013-01-04 09:49:00,
2013-01-04 04:54:00,19.7,14.0,29.89,South,179,0.0,0.0,78,0.00,,---,0.00,VWS V14.00,2013-01-04 09:54:00,
2013-01-04 04:59:00,19.7,14.0,29.89,South,179,0.0,0.0,78,0.00,,---,0.00,VWS V14.00,2013-01-04 09:59:00,
2013-01-04 05:04:00,19.5,13.8,29.89,South,179,0.0,0.0,78,0.00,,---,0.00,VWS V14.00,2013-01-04 10:04:00,
2013-01-04 05:09:00,19.5,13.8,29.89,South,179,0.0,0.0,78,0.00,,---,0.00,VWS V14.00,2013-01-04 10:09:00,
2013-01-04 05:14:00,19.5,14.1,29.89,South,179,0.0,0.0,79,0.00,,---,0.00,VWS V14.00,2013-01-04 10:14:00,
2013-01-04 05:19:00,19.5,14.1,29.89,South,179,0.0,0.0,79,0.00,,---,0.00,VWS V14.00,2013-01-04 10:19:00,
2013-01-04 05:24:00,19.5,14.1,29.89,South,179,0.0,0.0,79,0.00,,---,0.00,VWS V14.00,2013-01-04 10:24:00,
2013-01-04 05:29:00,19.5,14.1,29.89,South,179,0.0,0.0,79,0.00,,---,0.00,VWS V14.00,2013-01-04 10:29:00,
2013-01-04 05:34:00,19.5,14.4,29.90,South,179,0.0,0.0,80,0.00,,---,0.00,VWS V14.00,2013-01-04 10:34:00,
2013-01-04 05:39:00,19.7,14.5,29.90,South,179,0.0,0.0,80,0.00,,---,0.00,VWS V14.00,2013-01-04 10:39:00,
2013-01-04 05:44:00,20.0,14.8,29.90,South,179,0.0,1.0,80,0.00,,---,0.00,VWS V14.00,2013-01-04 10:44:00,
2013-01-04 05:49:00,20.0,14.6,29.90,South,179,0.0,1.0,79,0.00,,---,0.00,VWS V14.00,2013-01-04 10:49:00,
2013-01-04 05:54:00,20.0,14.8,29.90,South,179,0.0,1.0,80,0.00,,---,0.00,VWS V14.00,2013-01-04 10:54:00,
2013-01-04 05:59:00,20.0,14.8,29.90,South,179,0.0,1.0,80,0.00,,---,0.00,VWS V14.00,2013-01-04 10:59:00,
2013-01-04 06:04:00,20.0,14.8,29.89,South,179,0.0,0.0,80,0.00,,---,0.00,VWS V14.00,2013-01-04 11:04:00,
2013-01-04 06:09:00,20.0,15.1,29.89,South,179,0.0,0.0,81,0.00,,---,0.00,VWS V14.00,2013-01-04 11:09:00,
2013-01-04 06:15:00,20.2,15.3,29.89,SSW,209,0.0,1.0,81,0.00,,---,0.00,VWS V14.00,2013-01-04 11:15:00,
2013-01-04 06:20:00,20.3,15.4,29.90,SSW,209,1.0,1.0,81,0.00,,---,0.00,VWS V14.00,2013-01-04 11:20:00,
2013-01-04 06:25:00,20.6,15.4,29.90,SW,230,0.0,1.0,80,0.00,,---,0.00,VWS V14.00,2013-01-04 11:25:00,
2013-01-04 06:30:00,20.8,15.9,29.90,South,179,0.0,1.0,81,0.00,,---,0.00,VWS V14.00,2013-01-04 11:30:00,
2013-01-04 06:35:00,21.0,15.8,29.90,West,264,0.0,1.0,80,0.00,,---,0.00,VWS V14.00,2013-01-04 11:35:00,
2013-01-04 06:40:00,21.1,15.9,29.90,West,272,0.0,1.0,80,0.00,,---,0.00,VWS V14.00,2013-01-04 11:40:00,
2013-01-04 06:45:00,21.3,16.1,29.90,West,272,0.0,1.0,80,0.00,,---,0.00,VWS V14.00,2013-01-04 11:45:00,
2013-01-04 06:50:00,21.4,16.2,29.90,West,272,0.0,1.0,80,0.00,,---,0.00,VWS V14.00,2013-01-04 11:50:00,
2013-01-04 06:55:00,21.3,15.8,29.90,West,272,0.0,1.0,79,0.00,,---,0.00,VWS V14.00,2013-01-04 11:55:00,
2013-01-04 07:00:00,21.3,16.1,29.90,West,272,0.0,1.0,80,0.00,,---,0.00,VWS V14.00,2013-01-04 12:00:00,
2013-01-04 07:05:00,21.3,16.1,29.90,WNW,299,1.0,3.0,80,0.00,,---,0.00,VWS V14.00,2013-01-04 12:05:00,
2013-01-04 07:10:00,21.3,16.4,29.90,WNW,299,0.0,3.0,81,0.00,,---,0.00,VWS V14.00,2013-01-04 12:10:00,
2013-01-04 07:15:00,21.4,16.5,29.90,WNW,295,0.0,3.0,81,0.00,,---,0.00,VWS V14.00,2013-01-04 12:15:00,
2013-01-04 07:20:00,21.6,16.7,29.90,West,270,0.0,3.0,81,0.00,,---,0.00,VWS V14.00,2013-01-04 12:20:00,
2013-01-04 07:25:00,21.8,16.9,29.90,West,270,0.0,3.0,81,0.00,,---,0.00,VWS V14.00,2013-01-04 12:25:00,
2013-01-04 07:30:00,22.1,17.2,29.90,SW,224,0.0,3.0,81,0.00,,---,0.00,VWS V14.00,2013-01-04 12:30:00,
2013-01-04 07:35:00,22.2,17.0,29.90,WSW,237,0.0,0.0,80,0.00,,---,0.00,VWS V14.00,2013-01-04 12:35:00,
2013-01-04 07:40:00,22.5,17.3,29.90,West,267,0.0,1.0,80,0.00,,---,0.00,VWS V14.00,2013-01-04 12:40:00,
2013-01-04 07:45:00,22.7,17.2,29.90,West,264,0.0,1.0,79,0.00,,---,0.00,VWS V14.00,2013-01-04 12:45:00,
2013-01-04 07:50:00,23.0,17.5,29.91,West,260,0.0,1.0,79,0.00,,---,0.00,VWS V14.00,2013-01-04 12:50:00,
2013-01-04 07:55:00,23.3,17.8,29.91,West,260,0.0,1.0,79,0.00,,---,0.00,VWS V14.00,2013-01-04 12:55:00,
2013-01-04 08:00:00,23.6,18.1,29.91,WSW,248,0.0,2.0,79,0.00,,---,0.00,VWS V14.00,2013-01-04 13:00:00,
2013-01-04 08:05:00,23.8,18.0,29.90,West,261,1.0,1.0,78,0.00,,---,0.00,VWS V14.00,2013-01-04 13:05:00,
2013-01-04 08:10:00,24.4,18.2,29.90,West,280,0.0,3.0,77,0.00,,---,0.00,VWS V14.00,2013-01-04 13:10:00,
2013-01-04 08:15:00,24.7,18.5,29.90,NNE,31,1.0,3.0,77,0.00,,---,0.00,VWS V14.00,2013-01-04 13:15:00,
2013-01-04 08:20:00,24.8,18.3,29.90,West,277,1.0,5.0,76,0.00,,---,0.00,VWS V14.00,2013-01-04 13:20:00,
2013-01-04 08:25:00,25.3,18.8,29.90,West,278,0.0,5.0,76,0.00,,---,0.00,VWS V14.00,2013-01-04 13:25:00,
2013-01-04 08:30:00,25.4,18.6,29.90,NW,316,0.0,5.0,75,0.00,,---,0.00,VWS V14.00,2013-01-04 13:30:00,
2013-01-04 08:35:00,25.6,18.8,29.91,SSW,196,0.0,2.0,75,0.00,,---,0.00,VWS V14.00,2013-01-04 13:35:00,
2013-01-04 08:40:00,26.0,19.2,29.91,NW,319,1.0,2.0,75,0.00,,---,0.00,VWS V14.00,2013-01-04 13:40:00,
2013-01-04 08:45:00,26.1,19.3,29.91,WSW,241,0.0,3.0,75,0.00,,---,0.00,VWS V14.00,2013-01-04 13:45:00,
2013-01-04 08:50:00,26.4,19.2,29.91,West,263,0.0,8.0,74,0.00,,---,0.00,VWS V14.00,2013-01-04 13:50:00,
2013-01-04 08:55:00,26.6,19.4,29.91,WNW,292,0.0,8.0,74,0.00,,---,0.00,VWS V14.00,2013-01-04 13:55:00,
2013-01-04 09:00:00,26.9,19.4,29.91,West,260,0.0,8.0,73,0.00,,---,0.00,VWS V14.00,2013-01-04 14:00:00,
2013-01-04 09:05:00,27.2,19.4,29.90,WNW,302,0.0,7.0,72,0.00,,---,0.00,VWS V14.00,2013-01-04 14:05:00,
2013-01-04 09:10:00,27.3,19.8,29.90,West,277,0.0,7.0,73,0.00,,---,0.00,VWS V14.00,2013-01-04 14:10:00,
2013-01-04 09:15:00,27.8,20.0,29.90,North,359,0.0,7.0,72,0.00,,---,0.00,VWS V14.00,2013-01-04 14:15:00,
2013-01-04 09:20:00,28.1,19.9,29.90,SW,236,1.0,7.0,71,0.00,,---,0.00,VWS V14.00,2013-01-04 14:20:00,
2013-01-04 09:25:00,28.5,20.0,29.90,North,4,0.0,7.0,70,0.00,,---,0.00,VWS V14.00,2013-01-04 14:25:00,
2013-01-04 09:30:00,29.3,20.1,29.90,West,265,0.0,8.0,68,0.00,,---,0.00,VWS V14.00,2013-01-04 14:30:00,
2013-01-04 09:35:00,29.7,20.5,29.89,WSW,246,2.0,2.0,68,0.00,,---,0.00,VWS V14.00,2013-01-04 14:35:00,
2013-01-04 09:40:00,30.3,20.7,29.89,North,356,1.0,7.0,67,0.00,,---,0.00,VWS V14.00,2013-01-04 14:40:00,
2013-01-04 09:45:00,30.9,20.9,29.89,West,275,1.0,8.0,66,0.00,,---,0.00,VWS V14.00,2013-01-04 14:45:00,
2013-01-04 09:50:00,31.3,20.9,29.89,NNE,24,1.0,8.0,65,0.00,,---,0.00,VWS V14.00,2013-01-04 14:50:00,
2013-01-04 09:55:00,31.8,20.7,29.89,West,261,1.0,11.0,63,0.00,,---,0.00,VWS V14.00,2013-01-04 14:55:00,
2013-01-04 10:00:00,32.2,21.0,29.89,NW,306,2.0,13.0,63,0.00,,---,0.00,VWS V14.00,2013-01-04 15:00:00,
2013-01-04 10:06:00,32.5,20.9,29.89,West,260,0.0,6.0,62,0.00,,---,0.00,VWS V14.00,2013-01-04 15:06:00,
2013-01-04 10:11:00,32.9,20.5,29.89,WSW,247,0.0,8.0,60,0.00,,---,0.00,VWS V14.00,2013-01-04 15:11:00,
2013-01-04 10:16:00,33.2,20.8,29.88,North,356,2.0,8.0,60,0.00,,---,0.00,VWS V14.00,2013-01-04 15:16:00,
2013-01-04 10:20:00,33.4,21.4,29.88,WSW,254,8.0,8.0,61,0.00,,---,0.00,VWS V14.00,2013-01-04 15:20:00,
2013-01-04 10:25:00,33.5,21.1,29.88,West,264,2.0,13.0,60,0.00,,---,0.00,VWS V14.00,2013-01-04 15:25:00,
2013-01-04 10:30:00,33.8,20.6,29.87,NE,41,0.0,13.0,58,0.00,,---,0.00,VWS V14.00,2013-01-04 15:30:00,
2013-01-04 10:35:00,34.0,20.8,29.87,WNW,284,0.0,11.0,58,0.00,,---,0.00,VWS V14.00,2013-01-04 15:35:00,
2013-01-04 10:41:00,34.1,20.9,29.87,NNW,330,1.0,11.0,58,0.00,,---,0.00,VWS V14.00,2013-01-04 15:41:00,
2013-01-04 10:46:00,34.4,20.8,29.86,SSW,200,0.0,15.0,57,0.00,,---,0.00,VWS V14.00,2013-01-04 15:46:00,
2013-01-04 10:51:00,34.7,21.0,29.86,WSW,243,1.0,15.0,57,0.00,,---,0.00,VWS V14.00,2013-01-04 15:51:00,
2013-01-04 10:56:00,34.9,21.2,29.86,NW,322,2.0,15.0,57,0.00,,---,0.00,VWS V14.00,2013-01-04 15:56:00,
2013-01-04 11:01:00,34.9,20.8,29.85,WSW,247,1.0,15.0,56,0.00,,---,0.00,VWS V14.00,2013-01-04 16:01:00,
2013-01-04 11:06:00,34.9,20.4,29.85,WSW,244,0.0,11.0,55,0.00,,---,0.00,VWS V14.00,2013-01-04 16:06:00,
2013-01-04 11:11:00,35.0,21.7,29.85,WNW,288,1.0,11.0,58,0.00,,---,0.00,VWS V14.00,2013-01-04 16:11:00,
2013-01-04 11:16:00,35.3,20.8,29.85,North,359,3.0,12.0,55,0.00,,---,0.00,VWS V14.00,2013-01-04 16:16:00,
2013-01-04 11:21:00,35.5,21.4,29.85,North,350,0.0,12.0,56,0.00,,---,0.00,VWS V14.00,2013-01-04 16:21:00,
2013-01-04 11:26:00,35.5,21.4,29.85,NNW,329,0.0,12.0,56,0.00,,---,0.00,VWS V14.00,2013-01-04 16:26:00,
2013-01-04 11:31:00,35.3,21.2,29.84,North,359,1.0,17.0,56,0.00,,---,0.00,VWS V14.00,2013-01-04 16:31:00,
2013-01-04 11:36:00,35.2,21.1,29.84,NNW,339,8.0,8.0,56,0.00,,---,0.00,VWS V14.00,2013-01-04 16:36:00,
2013-01-04 11:41:00,35.0,22.1,29.84,WSW,239,14.0,17.0,59,0.00,,---,0.00,VWS V14.00,2013-01-04 16:41:00,
2013-01-04 11:46:00,35.3,21.2,29.82,NNW,337,0.0,17.0,56,0.00,,---,0.00,VWS V14.00,2013-01-04 16:46:00,
2013-01-04 11:51:00,35.5,21.0,29.82,WSW,254,2.0,17.0,55,0.00,,---,0.00,VWS V14.00,2013-01-04 16:51:00,
2013-01-04 11:56:00,35.6,21.9,29.82,ENE,61,1.0,18.0,57,0.00,,---,0.00,VWS V14.00,2013-01-04 16:56:00,
2013-01-04 12:01:00,35.8,21.2,29.81,SW,216,1.0,18.0,55,0.00,,---,0.00,VWS V14.00,2013-01-04 17:01:00,
2013-01-04 12:06:00,35.9,21.8,29.81,SSW,192,0.0,9.0,56,0.00,,---,0.00,VWS V14.00,2013-01-04 17:06:00,
2013-01-04 12:11:00,36.2,21.2,29.81,WNW,285,8.0,12.0,54,0.00,,---,0.00,VWS V14.00,2013-01-04 17:11:00,
2013-01-04 12:16:00,36.3,22.1,29.80,WSW,237,0.0,12.0,56,0.00,,---,0.00,VWS V14.00,2013-01-04 17:16:00,
2013-01-04 12:21:00,36.3,21.7,29.80,SSW,206,10.0,15.0,55,0.00,,---,0.00,VWS V14.00,2013-01-04 17:21:00,
2013-01-04 12:26:00,36.5,21.9,29.80,WSW,254,1.0,15.0,55,0.00,,---,0.00,VWS V14.00,2013-01-04 17:26:00,
2013-01-04 12:31:00,36.5,21.9,29.79,WSW,240,5.0,15.0,55,0.00,,---,0.00,VWS V14.00,2013-01-04 17:31:00,
2013-01-04 12:36:00,36.6,21.1,29.79,North,349,1.0,6.0,53,0.02,,---,0.02,VWS V14.00,2013-01-04 17:36:00,
2013-01-04 12:41:00,36.8,21.3,29.79,North,359,2.0,11.0,53,0.02,,---,0.02,VWS V14.00,2013-01-04 17:41:00,
2013-01-04 12:46:00,36.8,21.3,29.78,SW,236,2.0,12.0,53,0.02,,---,0.02,VWS V14.00,2013-01-04 17:46:00,
2013-01-04 12:51:00,36.8,20.8,29.78,WNW,295,0.0,12.0,52,0.02,,---,0.02,VWS V14.00,2013-01-04 17:51:00,
2013-01-04 12:56:00,36.9,21.4,29.78,NW,304,0.0,12.0,53,0.02,,---,0.02,VWS V14.00,2013-01-04 17:56:00,
2013-01-04 13:01:00,37.0,21.9,29.77,WSW,253,1.0,12.0,54,0.02,,---,0.02,VWS V14.00,2013-01-04 18:01:00,
2013-01-04 13:06:00,37.0,21.0,29.77,SSW,205,0.0,13.0,52,0.02,,---,0.02,VWS V14.00,2013-01-04 18:06:00,
2013-01-04 13:11:00,37.2,21.7,29.77,North,350,3.0,13.0,53,0.02,,---,0.02,VWS V14.00,2013-01-04 18:11:00,
2013-01-04 13:16:00,37.2,22.1,29.76,WSW,253,0.0,13.0,54,0.02,,---,0.02,VWS V14.00,2013-01-04 18:16:00,
2013-01-04 13:21:00,37.0,21.9,29.76,North,359,10.0,13.0,54,0.02,,---,0.02,VWS V14.00,2013-01-04 18:21:00,
2013-01-04 13:26:00,37.0,21.9,29.76,West,278,3.0,16.0,54,0.02,,---,0.02,VWS V14.00,2013-01-04 18:26:00,
2013-01-04 13:31:00,37.2,21.7,29.75,SW,219,1.0,16.0,53,0.02,,---,0.02,VWS V14.00,2013-01-04 18:31:00,
2013-01-04 13:37:00,37.5,22.4,29.75,NW,306,6.0,10.0,54,0.02,,---,0.02,VWS V14.00,2013-01-04 18:37:00,
2013-01-04 13:42:00,37.9,22.8,29.75,WSW,244,0.0,10.0,54,0.02,,---,0.02,VWS V14.00,2013-01-04 18:42:00,
2013-01-04 13:47:00,38.0,22.0,29.76,SW,222,0.0,10.0,52,0.02,,---,0.02,VWS V14.00,2013-01-04 18:47:00,
2013-01-04 13:52:00,37.6,22.0,29.76,North,359,2.0,10.0,53,0.02,,---,0.02,VWS V14.00,2013-01-04 18:52:00,
2013-01-04 13:57:00,37.3,23.1,29.76,NNW,342,1.0,10.0,56,0.03,,---,0.03,VWS V14.00,2013-01-04 18:57:00,
2013-01-04 14:02:00,37.0,22.4,29.75,WSW,244,0.0,0.0,55,0.01,,---,0.03,VWS V14.00,2013-01-04 19:02:00,
2013-01-04 14:07:00,37.0,22.4,29.75,NW,323,1.0,9.0,55,0.01,,---,0.03,VWS V14.00,2013-01-04 19:07:00,
2013-01-04 14:12:00,36.9,22.7,29.75,WSW,240,3.0,10.0,56,0.01,,---,0.03,VWS V14.00,2013-01-04 19:12:00,
2013-01-04 14:17:00,36.8,22.6,29.75,WSW,254,0.0,10.0,56,0.01,,---,0.03,VWS V14.00,2013-01-04 19:17:00,
2013-01-04 14:22:00,36.8,23.8,29.75,NW,305,2.0,10.0,59,0.01,,---,0.03,VWS V14.00,2013-01-04 19:22:00,
2013-01-04 14:27:00,36.6,22.8,29.75,WSW,248,2.0,12.0,57,0.01,,---,0.03,VWS V14.00,2013-01-04 19:27:00,
2013-01-04 14:32:00,36.5,22.7,29.76,NW,308,2.0,2.0,57,0.01,,---,0.03,VWS V14.00,2013-01-04 19:32:00,
2013-01-04 14:37:00,36.5,23.5,29.76,NW,322,2.0,3.0,59,0.01,,---,0.03,VWS V14.00,2013-01-04 19:37:00,
2013-01-04 14:42:00,36.3,22.5,29.76,NW,313,3.0,12.0,57,0.01,,---,0.03,VWS V14.00,2013-01-04 19:42:00,
2013-01-04 14:47:00,36.2,22.9,29.76,NW,325,0.0,12.0,58,0.01,,---,0.03,VWS V14.00,2013-01-04 19:47:00,
2013-01-04 14:52:00,36.2,23.3,29.76,WNW,295,0.0,12.0,59,0.01,,---,0.03,VWS V14.00,2013-01-04 19:52:00,
2013-01-04 14:57:00,36.0,23.5,29.76,NW,313,1.0,12.0,60,0.01,,---,0.03,VWS V14.00,2013-01-04 19:57:00,
2013-01-04 15:02:00,35.9,23.4,29.77,WSW,250,0.0,0.0,60,0.00,,---,0.03,VWS V14.00,2013-01-04 20:02:00,
2013-01-04 15:07:00,35.9,24.2,29.77,NW,308,0.0,10.0,62,0.00,,---,0.03,VWS V14.00,2013-01-04 20:07:00,
2013-01-04 15:12:00,35.9,23.4,29.77,SW,229,5.0,10.0,60,0.00,,---,0.03,VWS V14.00,2013-01-04 20:12:00,
2013-01-04 15:17:00,35.8,23.7,29.76,WNW,295,0.0,11.0,61,0.00,,---,0.03,VWS V14.00,2013-01-04 20:17:00,
2013-01-04 15:22:00,35.8,23.7,29.76,West,260,0.0,11.0,61,0.00,,---,0.03,VWS V14.00,2013-01-04 20:22:00,
2013-01-04 15:27:00,35.6,23.1,29.76,West,278,0.0,11.0,60,0.00,,---,0.03,VWS V14.00,2013-01-04 20:27:00,
2013-01-04 15:32:00,35.6,23.9,29.77,WSW,247,0.0,0.0,62,0.00,,---,0.03,VWS V14.00,2013-01-04 20:32:00,
2013-01-04 15:37:00,35.6,23.5,29.77,WSW,239,0.0,10.0,61,0.00,,---,0.03,VWS V14.00,2013-01-04 20:37:00,
2013-01-04 15:42:00,35.5,23.4,29.77,SSW,192,0.0,10.0,61,0.00,,---,0.03,VWS V14.00,2013-01-04 20:42:00,
2013-01-04 15:47:00,35.5,23.8,29.76,WNW,287,0.0,10.0,62,0.00,,---,0.03,VWS V14.00,2013-01-04 20:47:00,
2013-01-04 15:52:00,35.5,23.8,29.76,WNW,298,0.0,10.0,62,0.00,,---,0.03,VWS V14.00,2013-01-04 20:52:00,
2013-01-04 15:57:00,35.3,23.6,29.76,West,281,10.0,11.0,62,0.00,,---,0.03,VWS V14.00,2013-01-04 20:57:00,
2013-01-04 16:02:00,35.5,23.8,29.76,WNW,287,7.0,7.0,62,0.00,,---,0.03,VWS V14.00,2013-01-04 21:02:00,
2013-01-04 16:07:00,35.3,23.6,29.76,NW,323,0.0,11.0,62,0.00,,---,0.03,VWS V14.00,2013-01-04 21:07:00,
2013-01-04 16:12:00,35.3,24.0,29.76,NW,316,0.0,11.0,63,0.00,,---,0.03,VWS V14.00,2013-01-04 21:12:00,
2013-01-04 16:17:00,35.2,23.5,29.76,NW,322,0.0,11.0,62,0.00,,---,0.03,VWS V14.00,2013-01-04 21:17:00,
2013-01-04 16:22:00,35.0,23.7,29.76,WNW,291,0.0,11.0,63,0.00,,---,0.03,VWS V14.00,2013-01-04 21:22:00,
2013-01-04 16:27:00,35.2,23.5,29.76,WSW,253,0.0,11.0,62,0.00,,---,0.03,VWS V14.00,2013-01-04 21:27:00,
2013-01-04 16:32:00,35.2,24.3,29.76,West,270,0.0,1.0,64,0.00,,---,0.03,VWS V14.00,2013-01-04 21:32:00,
2013-01-04 16:37:00,35.0,23.3,29.76,WNW,285,0.0,5.0,62,0.00,,---,0.03,VWS V14.00,2013-01-04 21:37:00,
2013-01-04 16:42:00,35.0,23.7,29.76,WSW,237,0.0,7.0,63,0.00,,---,0.03,VWS V14.00,2013-01-04 21:42:00,
2013-01-04 16:47:00,34.9,23.6,29.76,West,277,0.0,7.0,63,0.00,,---,0.03,VWS V14.00,2013-01-04 21:47:00,
2013-01-04 16:52:00,34.9,24.0,29.76,West,275,0.0,7.0,64,0.00,,---,0.03,VWS V14.00,2013-01-04 21:52:00,
2013-01-04 16:57:00,34.7,23.4,29.76,West,265,0.0,7.0,63,0.00,,---,0.03,VWS V14.00,2013-01-04 21:57:00,
2013-01-04 17:03:00,34.7,23.4,29.76,WSW,243,0.0,0.0,63,0.00,,---,0.03,VWS V14.00,2013-01-04 22:03:00,
2013-01-04 17:08:00,34.6,23.3,29.76,West,274,0.0,2.0,63,0.00,,---,0.03,VWS V14.00,2013-01-04 22:08:00,
2013-01-04 17:13:00,34.6,23.7,29.76,North,349,0.0,5.0,64,0.00,,---,0.03,VWS V14.00,2013-01-04 22:13:00,
2013-01-04 17:18:00,34.6,23.3,29.77,West,264,0.0,7.0,63,0.00,,---,0.03,VWS V14.00,2013-01-04 22:18:00,
2013-01-04 17:23:00,34.6,23.7,29.77,WSW,243,0.0,7.0,64,0.00,,---,0.03,VWS V14.00,2013-01-04 22:23:00,
2013-01-04 17:28:00,34.4,23.1,29.77,WSW,248,0.0,7.0,63,0.00,,---,0.03,VWS V14.00,2013-01-04 22:28:00,
2013-01-04 17:33:00,34.3,23.8,29.77,WNW,292,0.0,0.0,65,0.00,,---,0.03,VWS V14.00,2013-01-04 22:33:00,
2013-01-04 17:38:00,34.1,24.0,29.77,WNW,294,0.0,0.0,66,0.00,,---,0.03,VWS V14.00,2013-01-04 22:38:00,
2013-01-04 17:43:00,33.8,23.7,29.77,WNW,294,0.0,0.0,66,0.00,,---,0.03,VWS V14.00,2013-01-04 22:43:00,
2013-01-04 17:48:00,33.7,23.6,29.77,WNW,294,0.0,0.0,66,0.00,,---,0.03,VWS V14.00,2013-01-04 22:48:00,
2013-01-04 17:53:00,33.5,23.4,29.77,SW,219,0.0,1.0,66,0.00,,---,0.03,VWS V14.00,2013-01-04 22:53:00,
2013-01-04 17:58:00,33.5,23.4,29.77,WSW,247,0.0,1.0,66,0.00,,---,0.03,VWS V14.00,2013-01-04 22:58:00,
2013-01-04 18:03:00,33.5,23.7,29.77,SSW,210,1.0,1.0,67,0.00,,---,0.03,VWS V14.00,2013-01-04 23:03:00,
2013-01-04 18:08:00,33.5,23.7,29.77,WSW,244,0.0,3.0,67,0.00,,---,0.03,VWS V14.00,2013-01-04 23:08:00,
2013-01-04 18:13:00,33.5,23.7,29.77,WNW,288,0.0,3.0,67,0.00,,---,0.03,VWS V14.00,2013-01-04 23:13:00,
2013-01-04 18:18:00,33.5,23.7,29.78,NW,323,0.0,3.0,67,0.00,,---,0.03,VWS V14.00,2013-01-04 23:18:00,
2013-01-04 18:23:00,33.5,23.4,29.78,NW,305,1.0,5.0,66,0.00,,---,0.03,VWS V14.00,2013-01-04 23:23:00,
2013-01-04 18:28:00,33.8,23.7,29.78,WSW,244,1.0,6.0,66,0.00,,---,0.03,VWS V14.00,2013-01-04 23:28:00,
2013-01-04 18:33:00,33.8,23.7,29.78,WSW,254,0.0,7.0,66,0.00,,---,0.03,VWS V14.00,2013-01-04 23:33:00,
2013-01-04 18:38:00,33.5,23.7,29.78,WSW,254,0.0,7.0,67,0.00,,---,0.03,VWS V14.00,2013-01-04 23:38:00,
2013-01-04 18:43:00,33.4,24.3,29.78,WSW,254,0.0,7.0,69,0.00,,---,0.03,VWS V14.00,2013-01-04 23:43:00,
2013-01-04 18:48:00,33.4,23.6,29.78,WSW,257,1.0,7.0,67,0.00,,---,0.03,VWS V14.00,2013-01-04 23:48:00,
2013-01-04 18:53:00,33.5,23.7,29.78,WNW,287,0.0,7.0,67,0.00,,---,0.03,VWS V14.00,2013-01-04 23:53:00,
2013-01-04 18:58:00,33.4,23.6,29.78,WNW,287,1.0,7.0,67,0.00,,---,0.03,VWS V14.00,2013-01-04 23:58:00,
2013-01-04 19:03:00,33.4,24.3,29.79,NW,326,0.0,1.0,69,0.00,,---,0.03,VWS V14.00,2013-01-05 00:03:00,
2013-01-04 19:08:00,33.1,23.7,29.79,NW,326,0.0,1.0,68,0.00,,---,0.03,VWS V14.00,2013-01-05 00:08:00,
2013-01-04 19:13:00,33.1,23.4,29.79,West,264,0.0,3.0,67,0.00,,---,0.03,VWS V14.00,2013-01-05 00:13:00,
2013-01-04 19:18:00,32.9,23.2,29.79,West,264,0.0,3.0,67,0.00,,---,0.03,VWS V14.00,2013-01-05 00:18:00,
2013-01-04 19:23:00,32.8,23.4,29.79,West,264,0.0,3.0,68,0.00,,---,0.03,VWS V14.00,2013-01-05 00:23:00,
2013-01-04 19:28:00,32.7,23.3,29.79,SW,233,0.0,3.0,68,0.00,,---,0.03,VWS V14.00,2013-01-05 00:28:00,
2013-01-04 19:33:00,32.4,23.0,29.79,SW,222,0.0,1.0,68,0.00,,---,0.03,VWS V14.00,2013-01-05 00:33:00,
2013-01-04 19:38:00,32.2,22.8,29.79,SW,222,0.0,1.0,68,0.00,,---,0.03,VWS V14.00,2013-01-05 00:38:00,
2013-01-04 19:43:00,31.9,22.9,29.79,SW,222,0.0,1.0,69,0.00,,---,0.03,VWS V14.00,2013-01-05 00:43:00,
2013-01-04 19:48:00,31.8,22.8,29.79,SW,223,0.0,2.0,69,0.00,,---,0.03,VWS V14.00,2013-01-05 00:48:00,
2013-01-04 19:53:00,31.6,23.0,29.79,SW,223,0.0,2.0,70,0.00,,---,0.03,VWS V14.00,2013-01-05 00:53:00,
2013-01-04 19:58:00,31.3,23.0,29.79,SW,223,0.0,2.0,71,0.00,,---,0.03,VWS V14.00,2013-01-05 00:58:00,
2013-01-04 20:03:00,31.2,22.9,29.79,WSW,237,0.0,1.0,71,0.00,,---,0.03,VWS V14.00,2013-01-05 01:03:00,
2013-01-04 20:08:00,31.3,22.7,29.79,SW,227,0.0,3.0,70,0.00,,---,0.03,VWS V14.00,2013-01-05 01:08:00,
2013-01-04 20:13:00,31.5,22.5,29.79,West,260,0.0,6.0,69,0.00,,---,0.03,VWS V14.00,2013-01-05 01:13:00,
2013-01-04 20:18:00,31.5,22.9,29.79,SW,226,1.0,6.0,70,0.00,,---,0.03,VWS V14.00,2013-01-05 01:18:00,
2013-01-04 20:23:00,31.3,22.7,29.79,WNW,287,0.0,6.0,70,0.00,,---,0.03,VWS V14.00,2013-01-05 01:23:00,
2013-01-04 20:28:00,31.2,22.6,29.79,West,278,0.0,6.0,70,0.00,,---,0.03,VWS V14.00,2013-01-05 01:28:00,
2013-01-04 20:33:00,31.2,22.2,29.79,West,272,0.0,1.0,69,0.00,,---,0.03,VWS V14.00,2013-01-05 01:33:00,
2013-01-04 20:38:00,31.2,22.2,29.79,SSW,199,0.0,2.0,69,0.00,,---,0.03,VWS V14.00,2013-01-05 01:38:00,
2013-01-04 20:43:00,31.2,22.2,29.79,West,271,0.0,2.0,69,0.00,,---,0.03,VWS V14.00,2013-01-05 01:43:00,
2013-01-04 20:48:00,31.0,22.0,29.79,West,280,0.0,2.0,69,0.00,,---,0.03,VWS V14.00,2013-01-05 01:48:00,
2013-01-04 20:53:00,31.0,22.0,29.79,WSW,247,0.0,3.0,69,0.00,,---,0.03,VWS V14.00,2013-01-05 01:53:00,
2013-01-04 20:58:00,31.2,22.2,29.79,SW,223,0.0,8.0,69,0.00,,---,0.03,VWS V14.00,2013-01-05 01:58:00,
2013-01-04 21:04:00,31.0,22.0,29.79,NW,312,0.0,2.0,69,0.00,,---,0.03,VWS V14.00,2013-01-05 02:04:00,
2013-01-04 21:09:00,31.2,21.9,29.79,SSW,208,0.0,3.0,68,0.00,,---,0.03,VWS V14.00,2013-01-05 02:09:00,
2013-01-04 21:14:00,31.2,21.9,29.79,WSW,246,0.0,3.0,68,0.00,,---,0.03,VWS V14.00,2013-01-05 02:14:00,
2013-01-04 21:19:00,31.0,21.7,29.79,WSW,253,0.0,3.0,68,0.00,,---,0.03,VWS V14.00,2013-01-05 02:19:00,
2013-01-04 21:24:00,30.9,22.3,29.79,WSW,253,0.0,3.0,70,0.00,,---,0.03,VWS V14.00,2013-01-05 02:24:00,
2013-01-04 21:29:00,30.7,21.8,29.79,NW,312,0.0,3.0,69,0.00,,---,0.03,VWS V14.00,2013-01-05 02:29:00,
2013-01-04 21:34:00,30.9,21.9,29.79,NNW,333,0.0,0.0,69,0.00,,---,0.03,VWS V14.00,2013-01-05 02:34:00,
2013-01-04 21:39:00,30.7,21.8,29.79,WSW,254,0.0,1.0,69,0.00,,---,0.03,VWS V14.00,2013-01-05 02:39:00,
2013-01-04 21:44:00,30.6,21.6,29.79,WSW,253,0.0,1.0,69,0.00,,---,0.03,VWS V14.00,2013-01-05 02:44:00,
2013-01-04 21:49:00,30.3,21.7,29.80,WSW,253,0.0,1.0,70,0.00,,---,0.03,VWS V14.00,2013-01-05 02:49:00,
2013-01-04 21:54:00,30.1,21.5,29.80,WSW,253,0.0,1.0,70,0.00,,---,0.03,VWS V14.00,2013-01-05 02:54:00,
2013-01-04 21:59:00,30.1,21.9,29.80,West,275,0.0,3.0,71,0.00,,---,0.03,VWS V14.00,2013-01-05 02:59:00,
2013-01-04 22:04:00,30.0,21.8,29.80,West,261,0.0,2.0,71,0.00,,---,0.03,VWS V14.00,2013-01-05 03:04:00,
2013-01-04 22:09:00,30.1,21.5,29.80,WSW,243,0.0,3.0,70,0.00,,---,0.03,VWS V14.00,2013-01-05 03:09:00,
2013-01-04 22:14:00,30.0,21.4,29.80,WSW,246,1.0,3.0,70,0.00,,---,0.03,VWS V14.00,2013-01-05 03:14:00,
2013-01-04 22:19:00,30.0,21.4,29.80,WSW,246,0.0,3.0,70,0.00,,---,0.03,VWS V14.00,2013-01-05 03:19:00,
2013-01-04 22:24:00,29.8,21.2,29.80,WSW,246,0.0,3.0,70,0.00,,---,0.03,VWS V14.00,2013-01-05 03:24:00,
2013-01-04 22:29:00,29.7,21.5,29.80,SE,138,0.0,3.0,71,0.00,,---,0.03,VWS V14.00,2013-01-05 03:29:00,
2013-01-04 22:34:00,29.7,21.5,29.80,SE,138,1.0,1.0,71,0.00,,---,0.03,VWS V14.00,2013-01-05 03:34:00,
2013-01-04 22:39:00,29.7,21.1,29.80,WSW,256,0.0,1.0,70,0.00,,---,0.03,VWS V14.00,2013-01-05 03:39:00,
2013-01-04 22:44:00,29.7,21.1,29.80,WSW,256,0.0,1.0,70,0.00,,---,0.03,VWS V14.00,2013-01-05 03:44:00,
2013-01-04 22:49:00,29.5,21.3,29.80,WSW,256,0.0,1.0,71,0.00,,---,0.03,VWS V14.00,2013-01-05 03:49:00,
2013-01-04 22:54:00,29.5,21.3,29.80,WSW,256,0.0,1.0,71,0.00,,---,0.03,VWS V14.00,2013-01-05 03:54:00,
2013-01-04 22:59:00,29.7,20.8,29.80,West,280,0.0,3.0,69,0.00,,---,0.03,VWS V14.00,2013-01-05 03:59:00,
2013-01-04 23:04:00,29.7,20.8,29.80,North,8,0.0,1.0,69,0.00,,---,0.03,VWS V14.00,2013-01-05 04:04:00,
2013-01-04 23:09:00,29.7,20.8,29.80,SW,217,0.0,2.0,69,0.00,,---,0.03,VWS V14.00,2013-01-05 04:09:00,
2013-01-04 23:14:00,29.7,20.8,29.80,WNW,291,0.0,2.0,69,0.00,,---,0.03,VWS V14.00,2013-01-05 04:14:00,
2013-01-04 23:19:00,29.8,20.9,29.80,WSW,258,0.0,3.0,69,0.00,,---,0.03,VWS V14.00,2013-01-05 04:19:00,
2013-01-04 23:24:00,29.5,20.6,29.80,WSW,258,0.0,3.0,69,0.00,,---,0.03,VWS V14.00,2013-01-05 04:24:00,
2013-01-04 23:29:00,29.5,20.6,29.80,West,271,0.0,3.0,69,0.00,,---,0.03,VWS V14.00,2013-01-05 04:29:00,
2013-01-04 23:34:00,29.5,20.6,29.80,NW,311,0.0,1.0,69,0.00,,---,0.03,VWS V14.00,2013-01-05 04:34:00,
2013-01-04 23:39:00,29.4,20.5,29.80,SSE,158,0.0,1.0,69,0.00,,---,0.03,VWS V14.00,2013-01-05 04:39:00,
2013-01-04 23:44:00,29.5,20.3,29.80,South,182,0.0,1.0,68,0.00,,---,0.03,VWS V14.00,2013-01-05 04:44:00,
2013-01-04 23:49:00,29.7,20.5,29.80,WSW,244,0.0,2.0,68,0.00,,---,0.03,VWS V14.00,2013-01-05 04:49:00,
2013-01-04 23:54:00,29.7,20.1,29.80,SSW,205,0.0,2.0,67,0.00,,---,0.03,VWS V14.00,2013-01-05 04:54:00,
2013-01-04 23:59:00,29.5,20.3,29.80,SSW,205,0.0,2.0,68,0.00,,---,0.03,VWS V14.00,2013-01-05 04:59:00,